Location: Vigo di Fassa
(46.4167°N, 11.6667°E)
Time: 13:10:28
(UTC+00:00)

Cosmos 1703 Rocket - Pass Details

Date: 03 March 2021
Orbit: 604 x 634 km, 82.5° (Epoch: 20 April)

Event Time Altitude Azimuth Distance (km) Brightness Sun altitude
Rises 18:47:43 0° 349° (NNW) 2,912 7.3 -18.9°
Reaches altitude 10° 18:49:58 10° 347° (NNW) 1,996 6.5 -19.3°
Maximum altitude 18:54:22 72° 264° (W) 652 3.7 -20.0°
Drops below altitude 10° 18:58:41 10° 180° (S) 1,962 6.0 -20.7°
Enters shadow 18:59:27 - 179° (S) 2,271 6.3 -20.9°
